Погода в Сухиничи

Погода в Сухиничи : погода сейчас, прогноз погоды и архив. Всё, что Вы хотите узнать о погоде в Сухиничи!

Хотите узнать прогноз погоды в Сухиничи? Тогда Вам сюда: Погода в Сухиничи

Поиск расширенной информации на нашем сайте:

Полезная информация:

Другие новости

Новости СМИ2

Главная страница сайта

Новости сайта

03.07.2017

Напоминаем, что на нашем специализированном сайте Метеоцентр.Азия вы можете получить высокодетализированные автоматические прогнозы погоды по пунктам России, СНГ и мира в авиационном формате (включающие направление и скорость ветра, видимость, явления погоды, количество и форму облачности, нижнюю и верхнюю границу облачности).

Рекомендуем:

Погода в Сухиничи - сегодня

Время (UTC), дата Ветер
(°,м/с) 
Видим.   Явления Облачность Т
(°С)
Тd
(°С)
f(%) Тe
(°С)
Pmin
(гПа)
dP
(гПа)
Po
(мм)
O2
(г/м3)
Тmin Tmax R s Состояние
почвы
09 15.09.19 270 (З) 40000 м    8/6 600 м верхняя 
[Cu hum|Ci fib]
+14.2 +4.4 52 +14  1018.5  -1  743  284           
12 15.09.19 260 (З) 40000 м    9/3 600 м верхняя 
[Cu hum|Cs]
+14.6 +2.6 44 +15  1016.1  -2.3  741  283           
15 15.09.19 240 (ЮЗ) 40000 м    9/8 1000 м средняя 
[Sc|Ac As]
+12.7 +3.9 55 +13  1013.7  -2.5  739  284           
18 15.09.19 220 (ЮЗ) 20000 м  в посл. час ливневой дождь  9/9 600 м кучево-дожд. 
[Cb cap]
+10 +6.3 78 +10  1011.1  -2.7  737  285    +15.4  0.5     
21 15.09.19 240 (ЮЗ) 10 км  слаб. ливневой дождь  9/9 600 м кучево-дожд. 
[Cb cap]
+9.8 +6.9 82 +9  1008.5  -2.7  735  285           
00 16.09.19 240 (ЮЗ) 20000 м    9/9 600 м 
[Sc]
+10.2 +6.3 77 +10  1005.8  -2.4  733  284           
03 16.09.19 250 (З) 10 км  слаб. ливневой дождь  9/9 300 м кучево-дожд. 
[Cb cap]
+9.3 +8 92 +9  1004  -1.8  732  284  +9.1       
06 16.09.19 250 (З) 10 км  в посл. час ливневой дождь  9/9 300 м кучево-дожд. 
[Cb cap]
+10.2 +8.9 92 +10  1002.4  -1.5  731  282  +9.1       
09 16.09.19 270 (З) 4-11{11}  26000 м  {ливн. осадки}  9/9 600 м 
[Sc]
+13.9 +7.3 64 +14  1001.5  -0.6  730  279           
12 16.09.19 260 (З) 5-13{13}  40000 м  {ливн. осадки}  8/8 600 м 
[Sc]
+15.7 +6.9 56 +15  1001.4  730  277           
15 16.09.19 260 (З) 3{14}  24000 м  {ливн. осадки}  8/8 600 м кучево-дожд. 
[Cb cap]
+12.1 +7.9 75 +12  1002.8  731  281         
18 16.09.19 250 (З) 16000 м    8/8 2000 м средняя 
[Ac As]
+9.1 +6.7 85 +10  1003.1  0.1  731  284    +15.7  0.3     
21 16.09.19 250 (З) 20000 м  {ливн. осадки}  3/3 600 м 
[Sc]
+9 +6.1 82 +9  1002.6  -0.6  731  284           
00 17.09.19 250 (З) 13000 м  {ливн. осадки}  8/8 2000 м средняя 
[Ac As]
+8.2 +6.3 88 +8  1001.8  -0.8  730  284           
03 17.09.19 240 (ЮЗ) 11000 м    3/0 верхняя 
[Ci fib]
+6.8 +5.1 89 +7  1001.6  -0.2  730  286  +6.7    0.3     
06 17.09.19 270 (З) 20000 м    8/8 600 м 
[Sc]
+8.9 +5.8 81 +8  1001.5  0.1  730  284  +6.5    0.3    влажная 
09 17.09.19 260 (З) 4-10{10}  40000 м    8/8 600 м кучево-дожд. 
[Cb cap]
+13 +4.5 56 +13  1001.2  0.1  730  280           
12 17.09.19 250 (З) 3{11}  27000 м  в посл. час ливневой дождь  8/4 600 м кучево-дожд., средняя, верхняя 
[Cb cap|Ac trans|Ci sp]
+10.7 +6.6 76 +10  1001.8  0.4  730  282           
15 17.09.19 тихо () {10}  25000 м  {ливн. осадки}  8/5 600 м кучево-дожд., средняя 
[Cb cap|Ac trans]
+9.6 +6.8 83 +10  1001.8  0.1  730  283         
18 17.09.19 240 (ЮЗ) 10 км    ясно 
+6 +4.6 91 +7  1002.4  0.3  730  287    +13     
21 17.09.19 240 (ЮЗ) 10 км    ясно 
+4.5 +3.5 93 +5  1002.2  -0.5  730  289           
00 18.09.19 200 (Ю) 10 км    3/0 верхняя 
[Ci fib]
+5 +3.9 93 +6  1000.9  -1.1  729  288           
03 18.09.19 тихо ()   10 км    10/4 600 м кучево-дожд., средняя 
[Cb cap|Ac As]
+5.7 +4.7 93 +6  999.5  -1.2  728  287  +4.2    0.3     
06 18.09.19 тихо ()   10 км  в посл. час дождь{ливн. осадки}  9/9 600 м 
[Sc]
+6.7 +5.5 92 +7  998.6  -0.8  728  285  +4.2    0.7    влажная 
09 18.09.19 190 (Ю) 10 км  в посл. час ливневой дождь  9/9 600 м кучево-дожд. 
[Cb cap]
+7.7 +6.3 91 +9  998  -0.6  727  284           
Время (UTC), дата Ветер
(°,м/с) 
Видим.   Явления Облачность Т
(°С)
Тd
(°С)
f(%) Тe
(°С)
Pmin
(гПа)
dP
(гПа)
Po
(мм)
O2
(г/м3)
Тmin Tmax R s Состояние
почвы

Для получения пояснительной информации подведите курсор к названию столбца.

ПОГОДА в Сухиничи - архив

Всё, что Вы хотите узнать о погоде в Сухиничи - удобно и подробно!

Выберите нужную дату (начиная с 1 января 2018* года) и нажмите кнопку "Найти".
Будут отображены архивные сводки погоды по пункту Сухиничи, начиная с указанной даты.


Отображать данные в формате CSV (для использования в таблицах Excel)


Внимание! Наш архив погоды предназначен исключительно для личного некоммерческого использования в познавательных целях. Если Вам необходимы официальные справки о состоянии погоды (для производственных, юридических, коммерческих и т.п. целей), обращайтесь в органы Росгидромета.

*Примечание: данная дата относится к архиву по метеостанциям СССР (Россия, СНГ, Балтия).
Архив по метеостанциям Зарубежной Европы и Азии (кроме Китая) хранится 10 дней, по другим регионам земного шара (Китай, Африка, Америка, Австралия, Океания) - 1 день.

Сухиничи - район местоположения метеостанции


Название, широта, долгота, высота метеостанции:
Сухиничи 54.1°ш. 35.3°д. 238 м над ур. моря [Российская Федерация]

Дополнительная информация

В oтличие oт бoльшинства пoгoдных сайтoв мы публикуем пoдрoбную метеoинфoрмацию в детальнoм прoфессиoнальнoм фoрмате.

Характеристики температуры и влажнoсти вoздуха измеряются на высoте 2 м в тени вдали oт зданий и деревьев.
Скoрoсть ветра измеряется на высoте 10 м (на урoвне рoста челoвека скoрoсть ветра ниже в 1.5-2 раза). Если метеoстанция нахoдится в гoрoде или в лесу, тo скoрoсть ветра занижена на 2-4 м/с пo сравнению с oткрытым местoм. Скoрoсть ветра над акватoриями крупных рек и oзёр, а также на вершинах хoлмoв на 2-5 м/с выше, чем в oбычных услoвиях.
Атмoсфернoе давление в разных тoчках местнoсти мoжет значительнo oтличаться oт давления на метеoстанции, в зависимoсти oт услoвий рельефа (при пoдъёме на 10 м давление пoнижается примернo на 1 мм рт.ст.).